Tracking 28799 objects as of 18-Apr-2024
HD Live streaming from Space Station
objects crossing your sky now

SL-16 R/B

Track SL-16 R/B now!
10-day predictions
SL-16 R/B is classified as:


NORAD ID: 20625
Int'l Code: 1990-046B
Perigee: 838.1 km
Apogee: 862.0 km
Inclination: 71.0 °
Period: 101.8 minutes
Semi major axis: 7221 km
RCS: 14.0306 m2 (large)
Launch date: May 22, 1990
Source: Commonwealth of Independent States (former USSR) (CIS)
Launch site: TYURATAM MISSILE AND SPACE COMPLEX (TTMTR)

Note: This is a ROCKET BODY
Your satellite tracking list
Your tracking list is empty




NASA's NSSDC Master Catalog

Two Line Element Set (TLE):
1 20625U 90046B   24108.85792138  .00000164  00000-0  10949-3 0  9999
2 20625  70.9996 308.5805 0016583 273.9959  85.9267 14.14824549750677
Source of the keplerian elements: AFSPC